www.pogodaiklimat.ru

Погода и климат >> Архив погоды >> Испания >> Витория-Гастейс


ПОГОДА в Витория-Гастейсе

  • Прогноз погоды в Витория-Гастейсе
  • Монитор погоды в Витория-Гастейсе

АРХИВ ПОГОДЫ в Витория-Гастейсе

Время (UTC), дата Ветер
(напр.,м/с)
 
Видим.   Явления Облачность Т
(С)
Тd
(С)
f
(%)
Тe
(С)
Тes
(С)
Комфортность P
(гПа)
Po
(гПа)
Тmin
(С)
Tmax
(С)
R
(мм)
R24
(мм)
S
(см)
13 18.06 Ю 5 30 км 3/3 300 м
[Sc diur, vesp Ac cuf]
+31.3 +8.3 24 +30 +37 жарко 1006.6 951.2
14 18.06 Ю 7 н/о н/о +32.5 +8.8 23 +31 +31 жарко 1005.6 950.5
15 18.06 ЮЗ 5 30 км 3/3 1500 м
[Sc diur, vesp Ac cuf]
+32.7 +5.1 18 +30 +35 жарко 1005.1 950.0
16 18.06 ЮЗ 8 н/о н/о +32.9 +3.7 16 +30 +30 жарко 1005.1 950.0
17 18.06 ЮЗ 8 н/о н/о +32.1 +2.8 16 +29 +29 жарко 1005.3 950.0
18 18.06 ЮЗ 7 30 км 3/3 1500 м
[Sc diur, vesp]
+30.7 +3.8 18 +28 +29 жарко 1005.8 950.3 +33.3
19 18.06 ЮЗ 3 н/о н/о +26.5 +12.4 42 +28 +28 жарко 1007.7 951.4
20 18.06 СЗ 2 н/о в посл. час осадки н/о +21.4 +13.3 60 +24 +24 комфорт 1009.6 952.3
23 18.06 СВ 3 н/о н/о +14.3 +12.5 89 +13 +13 1012.7 953.8
00 19.06 С 2 20 км 1/1 1500 м
[Sc diur, vesp]
+13.2 +12.1 93 +12 +12 1012.8 953.7
01 19.06 С 1 н/о н/о +13.0 +11.9 93 +14 +14 1013.2 954.0
02 19.06 С 1 н/о н/о +12.4 +11.3 93 +12 +12 1013.4 954.1
03 19.06 С 1 20 км ясно +12.5 +11.1 91 +12 +12 1013.8 954.5
04 19.06 штиль 0 н/о н/о +11.3 +10.5 95 +11 +11 1014.4 954.8
05 19.06 штиль 0 н/о н/о +12.6 +12.0 96 +12 +12 1014.3 955.0
06 19.06 Ю 2 25 км 5/5 1500 м
[Sc Ac As Ci fib]
+15.0 +13.0 88 +15 +16 1013.9 955.1 +10.9
07 19.06 Ю 2 25 км 5/4 1500 м
[Sc Ac As Ci fib]
+19.3 +14.3 73 +21 +23 комфорт 1013.1 955.2
08 19.06 ЮЗ 7 н/о н/о +20.9 +13.5 63 +23 +23 комфорт 1012.9 955.3
09 19.06 ЮЗ 6 30 км 5/4 1500 м
[Sc Ac trans Ci sp]
+22.7 +14.4 59 +26 +29 жарко 1012.2 955.0
10 19.06 ЮЗ 8 н/о н/о +23.5 +13.6 54 +26 +26 жарко 1012.1 955.1
11 19.06 ЮЗ 8 н/о н/о +24.1 +13.8 53 +26 +26 жарко 1012.2 955.3
12 19.06 ЮЗ 7 30 км 9/5 1000 м
[Cu Sc Ac As Ci sp]
+24.4 +13.0 49 +26 +28 жарко 1012.1 955.2
13 19.06 ЮЗ 6 30 км 8/4 1000 м
[Cu Sc Ac As Ci sp]
+25.7 +13.0 45 +28 +30 жарко 1011.6 955.0
14 19.06 ЮЗ 4 н/о н/о +25.2 +13.5 48 +27 +27 жарко 1011.6 954.9
15 19.06 ЮЗ 4 35 км 8/4 1000 м
[Cu Sc Ac trans Ci fib]
+26.0 +13.6 46 +28 +32 жарко 1011.4 954.9
16 19.06 СВ 6 н/о н/о +22.7 +16.5 68 +27 +27 душно 1012.0 954.9
17 19.06 С 5 н/о н/о +21.8 +16.2 70 +26 +26 душно 1012.4 955.1
18 19.06 С 5 30 км 9/6 600 м
[Cu Sc Ac trans Ci fib]
+19.6 +15.9 79 +21 +22 комфорт 1013.5 955.7 +26.1
19 19.06 С 6 н/о н/о +17.3 +15.0 86 +16 +16 1014.6 956.3
20 19.06 С 5 н/о н/о +16.4 +14.6 89 +16 +16 1015.8 957.2
21 19.06 С 4 15 км 10/10 300 м
[Cu Sc]
+15.9 +14.1 89 +15 +15 1016.8 958.0
22 19.06 С 4 н/о н/о +15.4 +13.8 90 +14 +14 1017.3 958.4
23 19.06 С 3 н/о н/о +15.4 +13.2 87 +15 +15 1017.3 958.4
00 20.06 С 3 15 км 10/10 300 м
[Cu Sc]
+15.2 +13.1 87 +15 +15 1017.5 958.5
01 20.06 СВ 2 н/о н/о +14.8 +13.3 91 +14 +14 1017.2 958.2
02 20.06 С 2 н/о н/о +14.8 +13.2 90 +15 +15 1017.0 958.0
03 20.06 СВ 4 15 км 10/10 200 м
[St]
+14.4 +13.4 94 +13 +13 1017.0 957.9
04 20.06 С 3 н/о н/о +14.1 +13.8 98 +13 +13 1017.1 958.0
05 20.06 СВ 3 н/о н/о +14.1 +13.9 99 +13 +13 1017.4 958.2
06 20.06 СВ 3 12 км 10/10 300 м
[Sc]
+14.5 +13.8 96 +14 +14 1017.4 958.3 +13.9
07 20.06 С 2 15 км 10/10 300 м
[Cu Sc]
+15.3 +14.0 92 +15 +15 1017.2 958.3
08 20.06 СВ 4 н/о н/о +15.9 +14.0 88 +15 +15 1016.9 958.1
09 20.06 СВ 5 15 км 10/10 300 м
[Cu Sc]
+16.0 +14.1 88 +15 +15 1016.7 958.0
10 20.06 С 5 н/о н/о +16.6 +13.7 83 +16 +16 1016.9 958.3
11 20.06 С 5 н/о н/о +17.8 +13.8 77 +17 +17 1016.7 958.3
12 20.06 С 7 20 км 10/10 600 м
[Sc]
+17.8 +13.8 77 +17 +17 1016.6 958.2
13 20.06 С 6 20 км 10/8 600 м
[Cu Sc Ac As]
+18.2 +14.0 76 +18 +18 1016.3 958.0
14 20.06 С 6 н/о н/о +17.9 +13.6 76 +17 +17 1016.0 957.7
15 20.06 С 6 15 км 9/9 600 м
[Cu Sc]
+17.3 +13.6 79 +16 +17 1016.1 957.6
16 20.06 С 6 н/о н/о +17.3 +13.6 79 +17 +17 1015.7 957.3
17 20.06 С 6 н/о н/о +16.7 +13.0 79 +16 +16 1016.2 957.6
18 20.06 СВ 5 15 км 9/9 600 м
[Cu Sc]
+17.0 +13.1 78 +16 +16 1016.1 957.6 +18.9
19 20.06 С 6 н/о н/о +16.1 +12.7 80 +15 +15 1016.5 957.8
20 20.06 С 4 н/о н/о +15.2 +12.7 85 +14 +14 1017.4 958.4
21 20.06 СВ 4 10 км слаб. дождь 9/9 300 м
[Cu Sc]
+14.2 +13.4 95 +13 +13 1018.1 958.9 0.0
22 20.06 С 3 н/о в посл. час осадки н/о +14.0 +13.0 94 +13 +13 1018.2 959.0
23 20.06 С 3 н/о осадки н/о +13.5 +13.2 98 +12 +12 1018.1 958.8
00 21.06 штиль 0 10 км 9/9 600 м
[Cu Sc]
+13.4 +13.0 97 +13 +13 1018.8 959.4 1
01 21.06 С 1 н/о осадки н/о +13.5 +13.1 97 +14 +14 1018.7 959.3
02 21.06 С 3 н/о в посл. час осадки н/о +13.0 +12.7 98 +12 +12 1018.1 958.7
03 21.06 С 3 8000 м дымка 10/10 300 м
[Cu Sc]
+12.9 +12.0 94 +11 +11 1018.2 958.7 0.4
04 21.06 СВ 3 н/о н/о +12.5 +12.2 98 +11 +11 1018.4 958.8
05 21.06 С 4 н/о осадки н/о +12.1 +11.8 98 +10 +10 1018.4 958.7
06 21.06 С 1 10 км в посл. час дождь 10/10 300 м
[Cu Sc]
+12.7 +12.0 96 +13 +13 1019.3 959.7 +12.0 0.9
07 21.06 С 4 15 км 9/9 300 м
[Cu Sc]
+12.9 +12.0 94 +11 +11 1019.8 960.2
08 21.06 С 4 н/о н/о +13.4 +11.6 89 +12 +12 1020.2 960.7
09 21.06 СВ 3 15 км 9/9 300 м
[Cu Sc]
+13.8 +12.6 92 +13 +14 1020.3 960.9
10 21.06 СВ 3 н/о н/о +15.2 +12.2 82 +14 +14 1020.2 961.1
11 21.06 СВ 4 н/о н/о +17.3 +12.6 74 +17 +17 1019.9 961.2
12 21.06 СВ 4 20 км 9/9 600 м
[Cu Sc]
+17.6 +12.3 71 +17 +19 1019.7 961.1
13 21.06 СВ 4 25 км 8/8 600 м
[Cu Sc]
+18.4 +11.9 66 +19 +21 1019.3 960.8
14 21.06 СВ 4 н/о н/о +17.8 +11.8 68 +18 +18 1019.2 960.6
15 21.06 С 6 30 км 6/6 600 м
[Cu Sc]
+18.8 +12.0 65 +19 +21 1018.8 960.4
16 21.06 С 5 н/о н/о +19.5 +12.0 62 +21 +21 комфорт 1018.5 960.3
17 21.06 С 5 н/о н/о +18.7 +11.3 62 +19 +19 1018.5 960.1
18 21.06 С 6 30 км 5/5 600 м
[Cu Sc]
+16.5 +11.9 74 +15 +16 1019.3 960.5 +19.7
19 21.06 С 5 н/о н/о +15.6 +11.6 77 +14 +14 1020.0 960.9
20 21.06 СВ 4 н/о н/о +13.1 +11.3 89 +11 +11 1020.9 961.3
21 21.06 СВ 4 20 км 1/1 600 м
[Sc]
+11.5 +10.9 96 +9 +9 1021.9 961.9
22 21.06 С 2 н/о н/о +10.9 +10.3 96 +10 +10 1021.9 961.8
23 21.06 С 3 н/о н/о +9.2 +8.8 97 +7 +7 1022.0 961.5
00 22.06 З 1 15 км 1/1 600 м
[Sc]
+8.0 +7.7 98 +8 +8 1022.0 961.2
01 22.06 В 2 н/о н/о +6.9 +6.9 100 +4 +4 1021.7 960.7
02 22.06 С 1 н/о н/о +6.7 +6.6 99 +5 +5 1021.5 960.4
03 22.06 штиль 0 5000 м дымка 10/10 100 м
[St]
+7.0 +7.0 100 +6 +6 1020.8 959.9
04 22.06 штиль 0 н/о н/о +8.0 +8.0 100 +7 +7 1020.0 959.3
05 22.06 штиль 0 н/о н/о +9.1 +9.1 100 +8 +8 1019.7 959.3
06 22.06 штиль 0 400 м туман ?/? +9.3 +9.3 100 +8 +8 1019.8 959.4 +6.2
07 22.06 штиль 0 1500 м дымка {туман} 10/10 50 м
[St]
+10.1 +10.1 100 +9 +9 1019.3 959.1
08 22.06 штиль 0 н/о н/о +11.7 +11.1 96 +11 +11 1018.8 959.0
09 22.06 СЗ 1 20 км {туман} 4/1 600 м
[Sc Cs]
+15.6 +12.6 82 +16 +28 опасность
простуды
1017.3 958.4
10 22.06 В 1 н/о н/о +19.3 +13.6 70 +22 +22 комфорт 1015.9 957.8
11 22.06 Ю 1 н/о н/о +22.3 +13.5 57 +25 +25 комфорт 1014.5 957.1
12 22.06 ЮВ 1 30 км {туман} 4/0 1500 м
[Ac cast Ci fib]
+25.3 +14.9 53 +28 +48 жарко 1013.1 956.4
13 22.06 Ю 1 30 км 4/1 1000 м
[Cu hum Ac cast Ci sp]
+26.9 +12.8 42 +29 +47 жарко 1011.9 955.5
14 22.06 ЮЗ 4 н/о н/о +28.8 +12.4 36 +30 +30 жарко 1010.7 954.7
15 22.06 ЮЗ 4 40 км 6/1 1500 м
[Cu hum Ac lent Cs]
+30.3 +12.3 33 +31 +37 жарко 1009.8 954.1
16 22.06 ЮЗ 4 н/о н/о +30.4 +11.5 31 +31 +31 жарко 1009.3 953.6
17 22.06 ЮЗ 3 н/о н/о +29.0 +11.4 34 +30 +30 жарко 1009.1 953.2
18 22.06 ЮВ 3 40 км 8/0
[Ac lent Cs]
+26.7 +14.9 48 +29 +31 жарко 1009.6 953.3 +30.5
19 22.06 С 4 н/о н/о +24.6 +15.8 58 +28 +28 душно 1010.1 953.4
20 22.06 С 3 н/о н/о +22.6 +15.9 66 +27 +27 душно 1010.5 953.4
21 22.06 штиль 0 30 км 9/0
[Ac lent Cs]
+20.5 +15.7 74 +23 +23 комфорт 1011.4 953.9
22 22.06 СВ 1 н/о н/о +18.3 +15.7 85 +20 +20 1011.7 953.7
23 22.06 штиль 0 н/о н/о +17.3 +15.3 88 +17 +17 1011.7 953.5
00 23.06 штиль 0 30 км 8/0
[Ac trans Cs]
+15.6 +14.1 91 +15 +15 1011.7 953.2
01 23.06 С 2 н/о н/о +17.2 +13.9 81 +18 +18 1010.9 952.7
02 23.06 В 1 н/о н/о +17.8 +13.5 76 +19 +19 1010.6 952.6
03 23.06 штиль 0 25 км 8/0
[Ac trans Cs]
+15.7 +13.5 87 +15 +15 1011.0 952.5
04 23.06 СВ 2 н/о н/о +15.6 +13.4 87 +15 +15 1011.6 953.1
05 23.06 З 1 н/о н/о +15.6 +13.4 87 +17 +17 1012.1 953.5
06 23.06 штиль 0 25 км 9/0
[Ac As]
+15.7 +14.1 90 +15 +16 1012.3 953.8 +15.0
07 23.06 штиль 0 25 км 9/0
[Ac As]
+17.7 +15.9 89 +18 +20 1012.5 954.4
08 23.06 ЮЗ 4 н/о н/о +21.7 +15.5 68 +25 +25 комфорт 1012.1 954.8
09 23.06 ЮЗ 3 25 км 8/0
[Ac cast Cs]
+23.4 +16.3 64 +28 +36 душно 1011.9 954.9
10 23.06 Ю 1 н/о н/о +26.0 +16.5 56 +30 +30 душно 1011.1 954.6
11 23.06 Ю 3 н/о н/о +28.2 +16.0 48 +31 +31 душно 1010.5 954.5
12 23.06 ЮВ 3 25 км 8/1 1500 м
[Cu hum Ac lent Cs]
+29.0 +14.3 41 +31 +41 жарко 1010.1 954.2
13 23.06 Ю 3 25 км 9/1 1500 м
[Cu hum Ac lent Cs]
+29.9 +15.7 42 +33 +41 душно 1009.7 954.0
14 23.06 штиль 0 н/о н/о +29.8 +16.1 44 +33 +33 душно 1009.4 953.7
15 23.06 Ю 4 30 км 5/1 1500 м
[Cu hum Ac lent Cs]
+30.9 +12.6 33 +32 +39 жарко 1008.7 953.2
16 23.06 Ю 3 н/о н/о +31.9 +13.4 32 +33 +33 жарко 1008.1 952.8
17 23.06 С 6 н/о н/о +25.1 +16.3 58 +28 +28 жарко 1010.0 953.4
18 23.06 С 5 30 км 8/1 1500 м
[Cu hum Cs]
+23.3 +17.1 68 +28 +29 душно 1010.8 953.9 +32.1
19 23.06 СЗ 2 н/о н/о +22.0 +16.3 70 +26 +26 душно 1011.7 954.5
20 23.06 штиль 0 н/о н/о +19.9 +16.1 79 +22 +22 комфорт 1012.4 954.7
21 23.06 штиль 0 20 км 8/1 1500 м
[Cu hum Ac cuf Cs]
+18.5 +16.1 86 +19 +19 1013.2 955.2
22 23.06 С 1 н/о н/о +17.5 +15.7 89 +19 +19 1013.5 955.3
23 23.06 штиль 0 н/о н/о +17.0 +15.3 90 +17 +17 1013.3 955.0
00 24.06 штиль 0 15 км 9/1 1500 м
[Cu hum Ac As]
+16.8 +15.8 94 +17 +17 1012.9 954.6
01 24.06 штиль 0 н/о н/о +16.4 +15.8 96 +16 +16 1013.1 954.7
02 24.06 штиль 0 н/о н/о +15.6 +14.8 95 +15 +15 1013.4 954.8
03 24.06 В 1 15 км 6/1 1500 м
[Cu hum Ac cuf Cs]
+15.0 +14.4 96 +15 +15 1013.5 954.8
04 24.06 штиль 0 н/о н/о +14.4 +14.0 97 +14 +14 1013.8 954.9
05 24.06 штиль 0 н/о н/о +14.5 +14.1 97 +14 +14 1014.0 955.1
06 24.06 штиль 0 15 км 9/0
[Ac cast Cs]
+16.0 +15.3 96 +16 +17 1013.5 955.0 +14.3
07 24.06 штиль 0 15 км 9/0
[Ac cast Cs]
+17.4 +15.8 90 +17 +21 1013.2 955.0
08 24.06 штиль 0 н/о н/о +21.2 +15.9 72 +25 +25 комфорт 1012.3 954.9
09 24.06 штиль 0 20 км 8/0
[Ac lent Cs]
+24.7 +15.1 55 +28 +38 душно 1011.9 955.1
10 24.06 штиль 0 н/о н/о +26.1 +13.0 44 +28 +28 жарко 1011.2 954.7
11 24.06 З 2 н/о н/о +26.6 +14.4 47 +29 +29 жарко 1011.1 954.7
12 24.06 ЮВ 4 30 км 10/0
[Ac As Cs]
+26.5 +13.1 44 +28 +37 жарко 1010.9 954.5
13 24.06 ЮВ 3 30 км 10/0
[Ac As Cs]
+27.7 +12.8 40 +29 +39 жарко 1010.3 954.1
14 24.06 ЮВ 4 н/о н/о +29.6 +14.1 39 +32 +32 душно 1009.3 953.5
15 24.06 В 5 30 км 10/0
[Ac lent Cs]
+30.1 +13.0 35 +31 +35 жарко 1009.3 953.6
16 24.06 В 3 н/о н/о +29.8 +13.1 36 +31 +31 жарко 1009.7 953.9
17 24.06 СЗ 4 н/о н/о +24.2 +18.3 70 +29 +29 душно 1011.1 954.4
18 24.06 СЗ 2 15 км н/о +21.0 +17.5 80 +26 +27 душно 1012.9 955.4 +30.2
19 24.06 С 4 н/о н/о +18.6 +16.3 86 +19 +19 1014.2 956.2
20 24.06 СВ 4 н/о н/о +16.7 +15.7 94 +16 +16 1015.7 957.2
21 24.06 В 2 8000 м дымка 8/5 300 м
[Sc Ac trans Cs]
+16.0 +15.2 95 +16 +16 1016.9 958.2
22 24.06 В 1 н/о н/о +15.6 +14.5 93 +17 +17 1017.3 958.5
23 24.06 штиль 0 н/о н/о +14.0 +13.4 96 +14 +14 1017.7 958.5
00 25.06 штиль 0 10 км 6/1 600 м
[Sc Ac trans Ci fib]
+13.8 +13.2 96 +13 +13 1017.5 958.3
01 25.06 СВ 2 н/о н/о +12.7 +12.4 98 +12 +12 1017.9 958.4
02 25.06 штиль 0 н/о н/о +12.3 +12.0 98 +12 +12 1017.7 958.1
03 25.06 штиль 0 12 км 9/0
[Ac trans Cs]
+11.8 +11.6 99 +11 +11 1017.4 957.7
05 25.06 штиль 0 н/о н/о +11.8 +11.8 100 +11 +11 1017.9 958.2
06 25.06 штиль 0 1200 м туман на расстоянии 9/4 50 м
[St Ac trans Cs]
+13.8 +13.3 97 +13 +14 1017.6 958.4 +11.3
07 25.06 штиль 0 9000 м дымка {туман} 9/3 100 м
[St Ac trans Ci fib]
+15.4 +14.8 96 +15 +17 1017.5 958.6
08 25.06 штиль 0 н/о н/о +17.3 +15.4 89 +17 +17 1017.1 958.6
09 25.06 штиль 0 15 км {туман} 8/0
[Ac trans Ci fib]
+20.4 +15.7 74 +23 +32 комфорт 1016.0 958.2
10 25.06 Ю 1 н/о н/о +22.4 +17.1 72 +27 +27 душно 1015.7 958.3
11 25.06 ЮВ 2 н/о н/о +25.7 +17.1 59 +30 +30 душно 1014.6 957.9

 

Местоположение метеостанции Витория-Гастейс (Испания): широта 42.88 долгота -2.72 высота над уровнем моря 510 м.

В архиве по умолчанию представлена погода в Витория-Гастейсе за последнюю неделю. Архивные данные за месяц целиком и за предыдущие месяцы, начиная с января 2011 года, Вы можете получить, выбрав интересующий диапазон дат из раскрывающегося списка и нажав кнопку "Ввод!".


*Определитесь, кто Вы:
робот инопланетянин человек

Внимание! Время в таблицах - всемирное. Для получения местного времени необходимо прибавить поправку, которая равна 1 ч.

Смотрите также архив погоды в соседних городах и на ближайших метеорологических станциях:

Погода в Зумаррага - Урзабалета (Испания) (39 км)
Погода в Элгойбар - Ибердрола (Испания) (45 км)
Погода в Гуэньесе (Испания) (47 км)
Погода в Бильбао (Испания) (50 км)
Погода в Логроньо (Испания) (57 км)
Погода на Мысе Лекейтио (Испания) (58 км)
Погода на Мысе Зумая (Испания) (60 км)
Погода в Пунта Галеа (Испания) (61 км)
Погода в Медина-де-Помаре (Испания) (62 км)
Погода в Белорадо (Испания) (63 км)

Пояснения к столбцам:

Ветер - указаны скорость ветра в м/с - средняя за 10 мин, порывы в срок и между сроками (в фигурных скобках) и направление, откуда дует ветер: С - северный, СВ - северо-восточный, В - восточный, ЮВ - юго-восточный, Ю - южный, ЮЗ - юго-западный, З - западный, СЗ - северо-западный.
Видимость - горизонтальная дальность видимости в метрах или километрах. При видимости от 1 до 10 км при отсутствии осадков обычно наблюдается дымка, при ухудшении видимости до 1 км и менее - туман. В сухую погоду видимость может ухудшаться дымом, пылью или мглою.
Явления - указаны атмосферные явления, наблюдавшиеся в срок или в последний час перед сроком; фигурными скобками обозначены явления, наблюдавшиеся между сроками (за 1-3 часа до срока); квадратными скобками обозначены град или гололедные отложения с указанием их диаметра в мм.
Облачность - указаны через наклонную черту общая и нижняя облачность в баллах и высота нижней границы облаков в метрах; квадратными скобками обозначены формы облаков: Ci - перистые, Cs - перисто-слоистые, Cc - перисто-кучевые, Ac - высококучевые, As - высокослоистые, Sc - слоисто-кучевые, Ns - слоисто-дождевые, Cu - кучевые, Cb - кучево-дождевые. Подробнее классификацию облаков см. в Атласе облаков (PDF).
T - Температура воздуха - температура, измеренная на высоте 2 м над землей.
Td - Температура точки росы - температура, при понижении до которой содержащийся в воздухе водяной пар достигнет насыщения.
f - Относительная влажность воздуха - влажноcть воздуха, измеренная на высоте 2 м над землей.
Te - Эффективная температура - температура, которую ощущает одетый по сезону человек в тени. Характеристика душности погоды. При расчете учитывается влияние влажности воздуха и скорости ветра на теплоощущения человека.
Tes - Эффективная температура на солнце - температура, которую ощущает человек, с поправкой на солнечный нагрев. Характеристика знойности погоды. Зависит от высоты солнца над горизонтом, облачности и скорости ветра. Ночью, в пасмурную погоду, а также при ветре 12 м/с и более поправка равна нулю.
P - Атмосферное давление - приведенное к уровню моря атмосферное давление.
Po - Атмосферное давление - измеренное на уровне метеостанции атмосферное давление.
Tmin - Минимальная температура - минимум температуры воздуха на высоте 2 м над землей.
Tmax - Максимальная температура - максимум температуры воздуха на высоте 2 м над землей.
R - Количество осадков - Количество выпавших осадков за период времени, мм. При наведении курсора мыши на число - период времени, за который выпало указанное количество осадков.
R24 - Количество осадков - Количество выпавших осадков за 24 часа, мм.
S - Снежный покров - Высота снежного покрова, см. При наведении курсора мыши на число - состояние снежного покрова и степень покрытия местности в баллах.